Temperature
17 17 17 17 18 19 19 20 20 20 21 21 21 20 21 21 21 21 22 22 22 21 21 21 21 20 19 19 19 19 19 18 17 16 16 16 15 15 14 14 14 14 14 14
16 17 17 18 19 19 19 20 19 19 20 20 18 19 20 21 21 21 21 21 21 21 20 20 20 19 19 19 19 18 18 18 17 17 16 16 15 15 14 14 14 14 14 14
15 16 17 18 18 19 18 18 18 17 17 17 18 19 19 20 20 20 20 20 19 19 19 19 19 18 18 18 18 18 17 17 17 16 16 16 16 15 15 15 14 14 14 14
15 16 16 17 18 18 18 17 16 16 16 16 17 18 19 18 18 19 19 18 18 18 17 17 17 17 17 17 17 17 17 16 16 16 16 16 16 15 15 15 15 14 14 14
14 15 17 16 15 15 16 16 16 15 16 15 16 21 21 17 16 17 17 16 17 17 17 17 17 17 17 17 16 16 16 16 16 16 16 16 15 15 15 15 15 14 14 14
13 13 14 12 13 14 16 16 14 14 15 15 15 19 19 16 15 15 15 16 16 17 17 18 17 16 16 15 15 15 15 15 15 15 15 15 15 15 15 15 14 14 14 14
13 13 12 10 12 15 14 12 12 13 14 14 14 15 15 15 15 14 15 15 16 16 17 16 15 15 15 14 13 13 13 13 14 14 14 14 14 14 14 14 14 14 13 13
11 11 10 10 11 10 10 10 11 12 13 13 13 14 15 15 14 14 14 15 15 16 16 15 14 14 13 13 12 12 12 12 12 12 12 12 13 13 13 13 13 13 13 13
11 11 11 10 10 9 9 9 11 11 12 13 13 14 15 15 15 15 14 14 14 15 14 14 14 13 13 13 12 12 11 11 11 11 11 12 12 12 12 12 12 12 12 12
13 13 12 11 10 9 9 9 10 11 12 12 13 14 15 15 15 15 15 14 14 14 14 14 13 13 13 12 12 11 11 11 11 11 11 11 11 11 11 11 11 12 12 12
12 12 11 11 10 9 8 9 9 10 11 12 13 14 15 15 16 15 15 15 14 14 14 14 13 13 13 12 12 11 11 11 11 11 11 11 11 11 11 11 11 11 11 11
10 11 10 10 9 8 8 8 9 10 11 12 13 14 14 15 15 15 15 15 15 14 14 14 14 13 13 13 12 11 11 11 11 10 10 10 10 11 11 11 11 11 11 11
9 9 9 9 8 8 8 8 9 10 11 12 13 14 14 15 15 15 15 15 15 15 14 14 14 13 13 13 12 11 11 11 11 10 10 10 10 10 10 10 11 11 11 11
9 8 9 9 8 8 8 8 9 10 11 12 13 14 14 15 15 15 16 16 15 15 15 14 14 13 13 13 12 11 11 11 11 10 10 10 10 10 10 10 10 10 10 10
9 8 8 8 8 8 8 8 9 10 11 12 13 14 14 15 15 16 16 16 16 15 15 15 14 14 13 13 12 11 11 11 10 10 10 10 10 10 10 10 10 10 10 10
9 9 9 9 9 8 8 9 9 10 11 12 14 14 15 15 16 16 16 16 16 16 15 15 14 14 13 13 12 11 11 11 11 10 10 10 10 10 10 10 10 10 9 9
9 9 9 9 8 8 8 8 9 9 10 12 13 15 16 16 16 16 17 17 16 16 15 15 15 14 14 13 12 11 11 11 11 10 10 10 10 10 10 10 10 9 9 9
8 8 8 8 8 8 8 8 9 9 10 11 13 15 16 16 16 17 17 17 17 16 16 16 15 15 14 13 12 11 11 10 10 10 10 10 10 10 10 10 10 10 9 9
8 8 8 8 8 8 8 8 9 9 10 11 13 15 16 17 17 17 17 17 17 17 17 16 16 15 14 13 12 11 10 10 10 10 10 10 10 10 10 10 10 10 9 9
8 8 8 8 8 8 8 8 9 9 10 11 13 15 16 17 17 18 18 18 18 17 17 16 16 15 13 13 12 11 10 10 10 10 10 10 10 10 10 10 10 10 10 9
8 8 8 8 8 9 9 9 9 9 10 11 12 14 16 17 18 18 18 18 18 17 17 16 16 15 13 13 12 11 10 10 10 10 10 10 10 10 10 10 10 10 10 9
9 8 8 8 8 9 9 9 9 9 9 11 13 14 16 18 18 18 18 18 18 18 17 17 16 15 14 13 12 11 10 10 10 10 10 10 10 10 10 10 10 9 9 9
9 8 8 8 8 9 9 9 9 9 10 11 12 14 16 17 18 18 18 19 18 18 17 17 16 15 14 13 12 11 10 10 10 10 10 10 10 10 10 10 9 9 9 9
8 8 8 8 8 9 9 9 9 9 10 11 12 14 16 17 18 19 19 19 18 18 17 17 16 14 13 12 12 11 10 10 10 10 10 10 10 10 9 9 9 9 9 9
8 8 8 8 8 8 9 9 9 9 10 11 12 14 16 17 18 18 19 18 18 17 17 16 15 14 13 12 12 11 10 10 10 10 10 10 9 9 9 9 9 9 9 9
8 8 8 8 8 8 8 8 9 9 9 10 12 14 16 17 18 18 18 18 18 17 17 16 15 14 13 12 12 11 11 10 10 10 10 9 9 9 9 9 9 9 8 8
8 8 8 8 8 8 8 8 9 9 9 10 11 14 15 16 17 18 18 18 17 17 17 16 15 14 13 12 12 11 10 10 10 10 9 9 9 9 9 9 9 8 8 8
Wind_Speed
10 9 7 10 11 10 11 10 9 10 12 12 16 19 19 18 16 14 13 11 10 9 7 6 7 9 10 10 10 11 11 10 9 9 8 8 8 9 9 9 9 9 9 9
11 9 10 11 10 9 8 6 7 9 9 14 20 19 16 14 13 12 11 9 8 7 6 5 6 7 8 9 9 9 10 9 8 8 8 8 9 9 9 9 9 9 9 9
8 9 11 5 3 4 9 12 8 8 13 20 21 19 14 12 10 9 7 5 3 2 1 1 3 5 7 7 7 7 7 7 7 8 9 9 9 9 10 10 10 10 10 10
7 8 4 6 10 8 10 15 16 14 16 19 21 15 9 13 11 8 5 4 5 6 7 7 7 6 5 5 4 4 4 5 6 7 8 8 9 10 10 10 10 10 10 10
4 6 3 6 11 12 4 7 20 21 22 24 25 7 11 19 16 9 6 7 8 9 10 10 10 8 7 6 4 2 0 3 4 6 7 8 9 10 10 10 10 10 10 10
4 5 2 10 21 19 7 1 22 23 24 24 23 13 12 19 14 7 7 7 8 9 11 11 10 9 9 8 7 6 4 2 2 3 5 7 8 8 8 9 9 9 10 10
5 4 5 14 21 13 4 9 20 21 22 21 17 13 17 16 7 4 5 6 7 9 10 10 9 9 9 9 8 7 5 5 3 1 2 3 4 6 7 8 8 9 9 9
6 5 5 16 14 9 9 15 19 21 21 21 20 19 16 9 2 2 4 4 5 8 9 8 8 8 9 8 6 6 5 5 5 4 2 1 2 3 5 6 8 8 8 8
4 3 5 9 7 7 11 17 19 21 22 21 21 19 16 8 1 3 3 3 4 6 7 7 6 7 7 6 5 5 5 5 5 5 4 3 2 2 3 4 5 6 7 8
7 5 10 9 8 12 15 18 21 21 21 21 20 19 15 7 3 4 4 4 4 5 5 5 4 4 5 4 4 4 5 5 5 5 5 4 3 2 2 3 4 5 6 6
8 10 12 9 15 16 17 19 20 21 20 19 19 18 15 8 5 5 5 5 4 4 3 3 2 1 2 2 3 4 4 4 4 4 5 5 5 5 3 2 2 1 2 3
7 12 12 17 16 17 18 19 20 21 21 20 18 17 14 8 4 6 6 6 6 5 4 2 1 0 1 1 2 4 4 4 3 3 3 3 4 5 11 9 8 7 7 4
10 14 15 16 15 16 17 18 19 19 19 19 16 14 13 9 4 5 7 8 7 7 6 4 2 2 1 1 1 2 3 2 2 2 2 3 2 3 5 7 10 11 10 9
10 11 12 14 17 16 17 18 18 18 16 15 14 13 12 9 5 6 8 9 8 7 7 5 4 3 2 3 2 0 1 1 1 1 1 1 2 2 2 4 5 5 8 10
9 12 14 16 15 15 15 16 16 15 15 15 13 13 12 11 8 6 7 8 9 8 8 7 5 4 4 4 3 1 1 0 1 1 1 2 2 2 3 4 4 4 4 5
13 13 13 14 15 16 16 16 16 17 16 16 15 14 13 12 9 5 6 9 10 10 9 7 6 5 6 5 4 3 2 2 0 2 2 3 2 3 3 4 4 4 3 3
13 15 16 17 17 17 17 16 16 16 16 16 16 16 14 12 8 4 6 9 10 9 7 7 6 6 7 7 5 4 3 4 4 3 2 2 2 3 3 4 4 4 4 3
11 13 15 16 16 17 18 17 16 16 16 17 16 15 13 11 9 6 5 8 9 8 7 6 6 8 8 8 6 4 4 4 4 3 3 2 3 3 4 4 5 5 4 4
12 13 14 15 16 16 16 16 16 16 16 15 15 14 13 11 9 6 5 8 10 10 8 8 9 10 9 8 6 5 5 5 4 4 4 4 3 3 4 4 5 4 4 4
12 13 14 15 16 15 16 16 16 15 15 15 15 14 13 10 7 5 6 8 8 6 7 10 11 10 9 9 7 5 5 5 5 5 4 4 4 4 4 4 5 5 4 4
13 14 15 15 16 16 15 15 15 16 15 15 14 14 13 11 8 6 6 7 7 7 8 11 10 9 9 9 8 6 6 5 5 5 5 5 5 5 5 5 5 5 4 4
13 14 15 16 16 16 16 15 15 16 16 15 14 14 13 11 8 7 8 6 5 10 9 9 9 10 11 11 7 6 6 6 5 5 5 5 5 5 5 5 5 4 4 4
13 14 15 16 16 17 17 15 15 15 15 15 15 14 12 10 7 6 6 6 7 12 10 9 12 16 15 9 7 7 7 6 6 5 5 5 5 5 5 5 5 4 4 4
14 14 15 15 16 16 16 16 15 14 15 15 13 13 11 9 7 7 6 6 10 13 9 13 19 18 13 8 7 7 7 6 6 5 5 5 5 5 5 5 4 4 4 5
14 15 15 15 14 13 15 16 16 15 15 13 13 12 9 7 6 5 5 8 12 13 10 15 20 17 11 8 8 8 7 6 6 6 5 5 5 5 5 5 5 5 5 4
13 12 12 13 13 12 12 12 12 12 13 13 12 10 8 6 5 5 5 9 14 12 11 13 13 12 9 8 8 8 7 7 7 6 6 6 6 6 5 6 6 5 5 5
13 12 11 11 11 10 10 11 11 12 12 13 14 12 9 6 4 5 7 9 11 11 11 12 12 10 9 9 9 8 7 7 7 6 6 6 6 6 6 7 6 6 5 5
Wind_Direction
299 299 292 283 278 267 256 261 272 290 299 315 331 322 310 301 295 291 281 276 272 268 263 245 225 210 198 190 186 187 192 197 201 204 203 209 210 210 212 215 220 216 216 214
302 298 294 280 279 271 265 282 296 310 315 342 327 318 309 303 299 292 287 284 281 279 271 247 213 193 184 186 188 192 199 203 200 205 202 207 210 213 210 210 217 215 217 215
295 300 294 256 31 57 82 55 28 5 340 332 330 330 333 332 322 313 311 314 319 329 356 107 152 167 172 178 180 197 206 206 205 209 206 207 209 210 207 208 211 214 215 212
288 291 238 93 52 42 103 65 35 9 350 341 332 321 10 9 350 345 4 44 72 81 83 86 96 107 118 134 163 194 213 220 218 218 213 208 207 208 210 210 207 213 214 210
278 281 259 76 15 351 310 65 22 3 354 350 342 339 39 18 8 12 46 76 84 86 86 81 79 85 94 96 98 104 221 251 239 226 219 211 208 209 209 208 206 208 209 209
284 282 31 10 341 325 273 96 8 356 352 350 352 3 354 349 355 28 66 82 88 89 85 80 76 80 83 79 73 60 41 5 294 245 230 221 216 210 205 207 208 208 210 212
307 288 73 3 346 353 50 355 340 342 343 344 344 328 316 325 348 50 74 81 87 87 83 80 80 80 77 70 61 50 41 37 32 6 253 232 217 203 199 204 207 209 210 208
352 351 12 354 2 12 339 325 331 333 335 335 330 327 331 335 357 100 98 92 95 96 92 84 79 78 75 67 57 48 42 39 36 32 26 88 181 191 197 198 201 204 205 198
336 322 301 327 336 336 329 324 325 326 327 328 328 330 333 329 226 155 136 123 118 114 107 96 78 67 70 66 49 42 40 37 32 33 41 47 95 158 179 189 195 196 198 193
326 332 336 330 340 338 330 320 318 319 321 323 325 327 328 318 230 189 173 161 155 145 127 110 89 68 61 55 37 30 33 30 32 32 44 53 51 71 153 180 193 199 203 195
317 332 332 322 330 329 325 320 319 319 318 319 321 324 325 310 242 204 186 181 183 180 159 136 116 69 55 31 9 16 25 32 38 42 47 52 55 37 24 50 31 229 202 198
311 320 314 309 320 323 321 319 318 317 316 318 319 320 324 315 255 207 194 186 192 200 204 201 217 301 60 27 351 1 18 26 35 50 62 71 82 76 49 50 56 48 39 26
298 306 303 301 313 319 317 316 315 313 310 311 315 320 324 321 276 213 199 195 200 205 215 225 235 250 198 171 339 8 16 26 44 61 85 96 103 108 104 79 68 62 58 56
310 314 309 314 317 317 316 315 313 310 310 312 316 320 323 323 294 229 209 200 202 208 216 224 232 232 197 183 189 322 20 66 55 106 115 113 107 111 118 124 115 89 67 63
317 317 309 311 314 318 320 320 320 321 322 321 322 321 324 323 305 255 217 198 198 208 216 221 226 215 185 188 195 199 225 165 125 119 149 140 134 128 113 109 112 113 108 86
318 318 320 324 325 328 329 328 325 323 323 320 320 321 321 317 306 266 217 199 201 210 214 216 220 199 180 185 186 186 170 81 255 182 173 165 157 142 129 126 124 126 124 118
318 323 329 329 329 329 327 323 319 317 316 315 315 315 313 311 304 271 222 208 212 218 215 212 205 179 175 181 185 186 178 159 180 201 179 154 140 133 129 128 126 122 114 97
307 308 312 316 320 321 320 320 318 315 313 311 310 308 307 306 304 288 237 209 206 211 212 203 183 170 171 175 182 184 181 175 176 171 161 147 135 130 126 127 128 127 126 128
307 308 311 314 316 316 316 317 316 314 312 311 309 306 302 298 295 282 239 209 207 209 202 184 162 171 168 167 169 180 182 177 176 172 163 150 161 140 135 130 129 130 135 140
309 310 313 314 316 318 317 316 315 313 313 312 308 303 299 298 294 273 236 222 216 209 172 161 166 169 164 164 175 178 180 182 176 170 166 169 159 146 139 134 136 137 140 141
314 314 314 316 316 317 317 317 315 314 314 312 307 302 298 296 288 261 236 228 205 178 160 156 163 161 162 158 173 173 177 177 173 170 168 167 159 152 147 144 143 142 140 134
314 312 313 314 314 316 319 317 315 315 315 312 308 303 297 292 278 252 233 229 182 162 163 165 163 151 152 156 167 167 174 173 170 169 169 169 165 161 154 148 143 139 137 129
311 310 310 312 314 314 314 316 318 318 315 313 309 304 297 288 275 252 234 201 175 171 172 163 146 143 152 164 163 167 172 172 170 171 171 171 168 161 151 146 141 137 129 119
307 307 307 309 310 311 315 319 319 317 315 311 306 302 296 285 268 241 238 171 164 162 168 147 145 152 164 167 164 169 172 168 167 167 166 168 164 155 147 141 132 125 119 112
300 302 303 307 309 311 313 315 317 320 320 318 315 312 302 281 265 242 206 178 162 160 153 153 155 160 170 166 167 168 167 165 164 164 167 168 162 157 149 143 138 130 121 112
295 297 297 297 299 299 304 310 315 319 322 322 320 319 312 295 260 221 192 171 164 163 154 154 160 170 173 166 165 165 162 156 159 169 170 166 161 155 145 139 135 128 122 119
289 290 289 291 295 300 305 308 312 317 321 322 319 314 308 293 251 200 176 162 161 164 158 157 161 168 164 162 164 165 164 162 164 165 164 161 156 151 147 145 139 133 130 128
Height
1497 1493 1492 1491 1487 1483 1483 1480 1482 1477 1475 1471 1472 1472 1468 1464 1461 1460 1459 1459 1459 1459 1459 1459 1460 1462 1464 1467 1469 1472 1474 1476 1477 1479 1480 1481 1483 1484 1486 1487 1489 1491 1492 1494
1498 1492 1490 1488 1483 1479 1478 1478 1479 1479 1477 1476 1477 1471 1465 1460 1458 1456 1456 1456 1456 1456 1456 1456 1457 1458 1460 1464 1466 1469 1471 1473 1474 1476 1477 1478 1479 1481 1483 1484 1486 1488 1490 1491
1501 1495 1491 1486 1482 1480 1483 1486 1486 1488 1489 1482 1474 1468 1463 1459 1456 1455 1454 1454 1454 1454 1454 1454 1455 1457 1459 1462 1464 1466 1468 1470 1471 1472 1473 1474 1476 1478 1479 1481 1483 1485 1487 1489
1502 1497 1495 1489 1484 1484 1485 1490 1493 1493 1490 1484 1476 1467 1463 1460 1457 1455 1454 1454 1454 1454 1454 1455 1456 1457 1459 1461 1462 1464 1465 1466 1467 1468 1469 1470 1472 1473 1475 1477 1479 1481 1484 1486
1504 1498 1487 1489 1493 1495 1491 1491 1495 1492 1487 1481 1473 1460 1459 1461 1459 1457 1457 1456 1455 1456 1456 1457 1458 1459 1460 1461 1461 1462 1462 1463 1463 1464 1465 1466 1467 1469 1471 1473 1475 1478 1480 1482
1507 1505 1500 1510 1501 1493 1491 1492 1497 1494 1490 1485 1477 1467 1466 1465 1463 1461 1460 1459 1459 1459 1459 1459 1459 1460 1461 1461 1461 1460 1460 1460 1460 1460 1461 1462 1463 1465 1467 1469 1471 1473 1476 1478
1508 1505 1506 1517 1506 1494 1501 1510 1504 1499 1495 1490 1486 1483 1477 1470 1466 1465 1463 1463 1462 1462 1461 1461 1461 1462 1462 1461 1460 1460 1459 1459 1458 1457 1457 1458 1459 1460 1462 1464 1466 1468 1471 1473
1516 1514 1520 1518 1512 1515 1517 1512 1507 1501 1496 1492 1486 1480 1475 1471 1468 1467 1466 1466 1465 1464 1463 1463 1463 1464 1463 1462 1461 1460 1459 1458 1457 1456 1456 1456 1456 1457 1458 1460 1462 1464 1466 1469
1524 1525 1523 1520 1519 1518 1515 1511 1506 1501 1495 1490 1484 1479 1474 1471 1469 1468 1468 1467 1467 1467 1466 1465 1465 1465 1464 1463 1462 1461 1460 1459 1457 1456 1455 1455 1455 1455 1456 1457 1459 1461 1463 1465
1520 1519 1520 1518 1517 1515 1512 1509 1504 1500 1494 1489 1484 1478 1474 1470 1469 1469 1468 1468 1468 1469 1468 1468 1467 1466 1465 1464 1463 1462 1461 1460 1458 1457 1456 1455 1455 1455 1456 1456 1458 1459 1461 1463
1521 1519 1518 1516 1516 1512 1508 1504 1500 1496 1492 1488 1483 1478 1473 1470 1469 1468 1468 1468 1469 1470 1470 1469 1468 1467 1466 1465 1464 1463 1462 1461 1460 1458 1457 1456 1456 1455 1456 1457 1458 1459 1460 1462
1525 1523 1521 1516 1512 1509 1505 1501 1497 1492 1487 1484 1481 1477 1472 1469 1467 1467 1467 1468 1468 1469 1470 1470 1469 1468 1467 1465 1464 1464 1463 1462 1461 1460 1459 1458 1457 1457 1457 1457 1458 1459 1460 1461
1526 1522 1519 1514 1510 1506 1501 1497 1493 1490 1486 1482 1478 1475 1471 1468 1466 1465 1466 1467 1468 1469 1469 1470 1469 1468 1467 1466 1465 1464 1464 1463 1462 1461 1461 1460 1460 1460 1459 1460 1460 1460 1461 1461
1523 1520 1515 1511 1507 1502 1498 1493 1490 1486 1483 1480 1476 1473 1470 1467 1465 1464 1464 1465 1467 1468 1468 1469 1469 1468 1467 1466 1465 1465 1464 1463 1463 1462 1462 1462 1462 1461 1461 1461 1461 1461 1462 1462
1520 1518 1514 1509 1504 1500 1495 1490 1486 1482 1478 1475 1473 1471 1468 1466 1464 1462 1462 1463 1465 1466 1467 1468 1468 1467 1466 1466 1465 1465 1465 1464 1463 1463 1463 1463 1463 1462 1462 1462 1462 1462 1462 1463
1517 1514 1510 1506 1501 1496 1491 1486 1482 1478 1475 1471 1469 1468 1465 1463 1461 1460 1460 1461 1463 1464 1466 1466 1466 1466 1465 1465 1464 1464 1464 1463 1463 1463 1464 1464 1464 1464 1463 1463 1463 1463 1463 1464
1514 1510 1506 1502 1498 1493 1489 1485 1480 1476 1472 1469 1466 1464 1462 1461 1459 1458 1458 1459 1461 1463 1464 1465 1465 1464 1464 1464 1464 1464 1464 1463 1463 1464 1464 1464 1464 1464 1464 1464 1464 1464 1464 1465
1511 1508 1504 1501 1496 1491 1486 1481 1477 1473 1469 1465 1462 1461 1459 1458 1457 1456 1456 1457 1458 1460 1461 1462 1462 1462 1462 1462 1463 1463 1464 1464 1464 1464 1464 1465 1465 1465 1465 1465 1465 1465 1466 1466
1507 1504 1501 1497 1493 1488 1483 1478 1473 1469 1464 1461 1459 1457 1456 1455 1454 1454 1454 1454 1456 1458 1459 1460 1460 1460 1461 1461 1461 1462 1463 1464 1464 1464 1465 1465 1466 1466 1466 1466 1467 1467 1467 1468
1503 1500 1497 1493 1489 1484 1479 1474 1469 1465 1461 1457 1455 1453 1452 1452 1451 1451 1451 1452 1453 1455 1457 1458 1458 1459 1459 1460 1460 1461 1462 1463 1464 1464 1465 1466 1466 1467 1467 1467 1468 1468 1469 1469
1499 1496 1492 1489 1484 1480 1475 1470 1466 1461 1457 1453 1450 1448 1447 1448 1448 1448 1448 1449 1451 1452 1454 1455 1456 1457 1458 1458 1459 1460 1461 1462 1463 1464 1465 1466 1467 1467 1468 1468 1469 1469 1470 1470
1494 1491 1488 1484 1480 1476 1471 1466 1462 1457 1452 1448 1445 1444 1443 1443 1444 1444 1445 1447 1448 1450 1452 1453 1454 1455 1456 1457 1458 1459 1460 1461 1463 1464 1465 1466 1467 1468 1468 1469 1470 1470 1471 1471
1489 1486 1483 1480 1476 1471 1467 1463 1458 1453 1448 1443 1440 1438 1438 1438 1439 1441 1442 1443 1445 1447 1449 1451 1452 1454 1455 1456 1457 1458 1459 1461 1462 1463 1464 1466 1467 1468 1468 1469 1470 1470 1471 1471
1484 1481 1478 1475 1471 1467 1462 1458 1453 1448 1443 1439 1436 1434 1433 1434 1435 1436 1438 1439 1442 1444 1447 1449 1450 1452 1453 1455 1456 1457 1459 1460 1461 1463 1464 1465 1467 1467 1468 1469 1469 1470 1470 1471
1478 1476 1473 1470 1466 1463 1458 1453 1448 1444 1439 1434 1431 1429 1429 1429 1431 1432 1434 1436 1439 1442 1444 1446 1448 1450 1452 1454 1455 1456 1458 1459 1460 1462 1463 1465 1466 1467 1468 1468 1469 1469 1470 1470
1472 1470 1467 1464 1462 1458 1454 1450 1445 1441 1436 1431 1427 1425 1425 1425 1426 1428 1430 1433 1436 1439 1442 1444 1446 1449 1450 1452 1454 1455 1457 1458 1459 1461 1462 1464 1465 1466 1467 1467 1468 1468 1469 1469
1466 1464 1461 1459 1457 1454 1451 1447 1443 1438 1434 1429 1424 1422 1421 1421 1423 1424 1427 1430 1433 1436 1439 1442 1444 1447 1448 1450 1452 1454 1456 1457 1458 1460 1461 1463 1464 1465 1466 1466 1467 1467 1468 1469